Sheridan, NY

2:04 AM EDT on September 25, 2016 (GMT -0400)
Chautauqua County-Dunkirk

Weather History for KDKK - November, 2012

Change the Weather History Date:

Saturday, November 17, 2012

  Actual Average Record
Temperature  
Mean Temperature 38 °F -  
Max Temperature 50 °F 47 °F 69 °F (1931)
Min Temperature 26 °F 33 °F 16 °F (1933)
Degree Days  
Heating Degree Days 27    
Moisture  
Dew Point 30 °F    
Average Humidity 80    
Maximum Humidity 92    
Minimum Humidity 57    
Precipitation  
Precipitation 0.00 in - - ()
Sea Level Pressure  
Sea Level Pressure 30.61 in    
Wind  
Wind Speed 3 mph (SSE)    
Max Wind Speed 7 mph    
Max Gust Speed -    
Visibility 6 miles    
Events      
Averages and records for this station are not official NWS values.
T = Trace of Precipitation, MM = Missing Value Source: NWS Daily Summary

Daily Weather History Graph

Daily Weather History Graph

Search for Another Location

Airport or City:

Trip Planner

Search our weather history database for the weather conditions in past years. The results will help you decide how hot, cold, wet, or windy it might be!

Date:

Astronomy

Nov. 17, 2012 Rise Set
Actual Time 7:11 AM EST 4:52 PM EST
Civil Twilight 6:40 AM EST 5:23 PM EST
Nautical Twilight 6:06 AM EST 5:57 PM EST
Astronomical Twilight 5:33 AM EST 6:30 PM EST
Moon 10:54 AM EST (11/17) 9:00 PM EST (11/17)
Length of Visible Light 10h 42m
Length of Day
9h 41m
Waxing Crescent, 20% of the Moon is Illuminated
Nov 17
Waxing Crescent
Nov 20
First Quarter
Nov 28
Full
Dec 6
Last Quarter
Dec 13
New

Hourly Weather History & Observations

Time (EST) Temp. Windchill Dew Point Humidity Pressure Visibility Wind Dir Wind Speed Gust Speed Precip Events Conditions
12:53 AM 28.0 °F 24.2 °F 26.1 °F 92% 30.53 in 8.0 mi South 3.5 mph - N/A   Clear
1:53 AM 27.0 °F 23.0 °F 25.0 °F 92% 30.54 in 7.0 mi South 3.5 mph - N/A   Clear
2:53 AM 27.0 °F 23.0 °F 24.1 °F 89% 30.56 in 5.0 mi South 3.5 mph - N/A   Clear
3:53 AM 26.1 °F 21.9 °F 24.1 °F 92% 30.56 in 4.0 mi South 3.5 mph - N/A   Clear
4:53 AM 26.1 °F 21.9 °F 23.0 °F 88% 30.58 in 4.0 mi South 3.5 mph - N/A   Clear
5:53 AM 26.1 °F 21.9 °F 24.1 °F 92% 30.59 in 4.0 mi South 3.5 mph - N/A   Clear
6:53 AM 26.1 °F 21.9 °F 24.1 °F 92% 30.61 in 4.0 mi South 3.5 mph - N/A   Clear
7:53 AM 27.0 °F - 25.0 °F 92% 30.63 in 3.0 mi Calm Calm - N/A   Clear
8:53 AM 35.1 °F 32.2 °F 30.9 °F 85% 30.64 in 6.0 mi SSE 3.5 mph - N/A   Clear
9:45 AM 44.6 °F 42.2 °F 35.6 °F 71% 30.62 in 8.0 mi South 4.6 mph - N/A   Mostly Cloudy
9:53 AM 45.0 °F 42.6 °F 36.0 °F 71% 30.65 in 8.0 mi SSE 4.6 mph - N/A   Overcast
10:36 AM 46.4 °F - 35.6 °F 66% 30.63 in 9.0 mi Calm Calm - N/A   Scattered Clouds
10:53 AM 46.9 °F - 34.0 °F 61% 30.65 in 7.0 mi Calm Calm - N/A   Clear
11:53 AM 50.0 °F - 35.1 °F 57% 30.63 in 7.0 mi Calm Calm - N/A   Clear
12:53 PM 48.9 °F - 36.0 °F 61% 30.62 in 6.0 mi North 6.9 mph - N/A   Haze
1:53 PM 50.0 °F - 37.0 °F 61% 30.61 in 6.0 mi North 6.9 mph - N/A   Haze
2:53 PM 48.9 °F - 36.0 °F 61% 30.61 in 7.0 mi North 5.8 mph - N/A   Clear
3:53 PM 46.9 °F - 36.0 °F 66% 30.62 in 6.0 mi North 5.8 mph - N/A   Haze
4:53 PM 43.0 °F - 35.1 °F 74% 30.61 in 6.0 mi Calm Calm - N/A   Haze
5:53 PM 37.0 °F - 33.1 °F 86% 30.62 in 6.0 mi Calm Calm - N/A   Clear
6:53 PM 33.1 °F - 30.9 °F 92% 30.62 in 5.0 mi Calm Calm - N/A   Clear
7:53 PM 32.0 °F - 28.9 °F 88% 30.63 in 4.0 mi Calm Calm - N/A   Clear
8:53 PM 30.0 °F - 28.0 °F 92% 30.63 in 4.0 mi Calm Calm - N/A   Clear
9:53 PM 30.0 °F - 28.0 °F 92% 30.63 in 4.0 mi Calm Calm - N/A   Clear
10:53 PM 30.9 °F - 28.0 °F 89% 30.62 in 4.0 mi Calm Calm - N/A   Clear
11:53 PM 28.0 °F - 25.0 °F 88% 30.61 in 3.0 mi Calm Calm - N/A   Clear